Regional Weather Roundup
Issued by NWS Columbia, SC

Home | Current Version | Previous Version | Text Only | Print | Product List | Glossary On
Versions: 1 2 3 4 5 6 7 8 9 10 11 12 13 14 15 16 17 18 19 20 21 22 23 24 25 26 27 28 29 30 31 32 33 34 35 36 37 38 39 40 41 42 43 44 45 46 47 48 49 50
000
ASUS42 KCAE 060110
RWRCAE
REGIONAL WEATHER ROUNDUP
NATIONAL WEATHER SERVICE COLUMBIA SC
800 PM EST MON DEC 05 2016

NOTE: "FAIR" INDICATES FEW OR NO CLOUDS BELOW 12,000 FEET WITH NO
SIGNIFICANT WEATHER AND/OR OBSTRUCTIONS TO VISIBILITY.

NOT ALL STATIONS ARE QUALITY CONTROLLED BY THE NATIONAL
WEATHER SERVICE. USE DATA WITH CAUTION...ESPECIALLY
DEWPOINT OBSERVATIONS.

SCZ001>056-GAZ040-063>065-077-060200-
...UPSTATE SOUTH CAROLINA...

CITY           SKY/WX    TMP DP  RH WIND       PRES   REMARKS
ANDERSON       CLOUDY    52  50  93 N5        30.00R
LIBERTY        RAIN      51  49  93 NE3       30.00R
SPARTANBURG    LGT RAIN  50  46  87 NE6       29.98F
CLEMSON        LGT RAIN  53  50  89 NE5       30.01R
GREENVILLE     LGT RAIN  53  49  86 NE5       30.03R
GREENWOOD      CLOUDY    52  49  89 E3        29.99R
GREER          LGT RAIN  51  49  92 CALM      30.01R
ROCK HILL      LGT RAIN  52  50  93 CALM      30.01F
CHESTER        CLOUDY    50  50 100 NE7       29.99F


...CENTRAL SOUTH CAROLINA...

CITY           SKY/WX    TMP DP  RH WIND       PRES   REMARKS
COLUMBIA APT   CLOUDY    58  50  75 E6        29.99R
COLUMBIA OWENS CLOUDY    56  52  86 E3        30.00S
MCENTIRE ANGB  CLOUDY    54  52  93 E3        29.99R
ORANGEBURG     CLOUDY    54  51  90 E3        29.99R
SUMTER SHAW    CLOUDY    55  51  86 E7        29.99R
NEWBERRY       CLOUDY    54  52  94 NE6       30.01F
AIKEN          CLOUDY    54  50  87 E6        30.01R
MANNING        MOCLDY    52  52 100 N5        29.99F
LANCASTER      CLOUDY    54  52  94 NE9       29.97F
WINNSBORO      CLOUDY    54  52  94 E5        30.00R


...EASTERN AND COASTAL SOUTH CAROLINA...

CITY           SKY/WX    TMP DP  RH WIND       PRES   REMARKS
MYRTLE BEACH   RAIN      57  52  82 NE9       30.04R
N MYRTLE BCH   LGT RAIN  55  52  89 NE7       30.03R
CONWAY         LGT RAIN  54  52  94 N3        30.04S
MARION         LGT RAIN  52  52 100 NE6       30.02F
HARTSVILLE     MOCLDY    54  48  82 NE12      29.98F
FLORENCE       LGT RAIN  54  53  97 NE8       30.01F
DARLINGTON     LGT RAIN  54  50  86 NE8       30.02F
CHARLESTON APT RAIN      58  55  90 E12       29.99R FOG
WALTERBORO     HVY RAIN  57 N/A N/A NE5       29.99F
BEAUFORT       LGT RAIN  58  57  97 NE8       29.97R
HILTON HEAD    CLOUDY    59  59 100 N8        29.97R


...EASTERN GEORGIA...

CITY           SKY/WX    TMP DP  RH WIND       PRES   REMARKS
AUGUSTA BUSH F RAIN      57  53  86 CALM      29.98R FOG
AUGUSTA DANIEL HVY RAIN  55  51  86 E9        29.98R FOG
THOMSON        CLOUDY    55  55 100 E3        30.00S
WASHINGTON     RAIN      55  55 100 E3        29.97R
CLAXTON        RAIN     N/A N/A N/A NE7       29.94F
SYLVANIA       RAIN     N/A N/A N/A E5        29.96R
STATESBORO     LGT RAIN  57  57  99 CALM      29.95S
SAVANNAH       LGT RAIN  59  57  93 E9        29.95S VSB 1


...SOUTHERN NORTH CAROLINA...

CITY           SKY/WX    TMP DP  RH WIND       PRES   REMARKS
CHARLOTTE      LGT RAIN  53  48  83 E3        30.04R
MONROE         CLOUDY    53  49  86 NE5       30.02S
WADESBORO      CLOUDY    53  50  90 CALM      30.04F
ROCKINGHAM     CLOUDY    54  47  77 CALM      30.05R
RUTHERFORDTON  CLOUDY    51  51 100 CALM      30.03R
ASHEVILLE      LGT RAIN  49  46  90 S7        30.01R

$$



USA.gov is the U.S. government's official web portal to all federal, state and local government web resources and services.